Regional Weather Roundup
Issued by NWS

Home | Current Version | Previous Version | Text Only | Print | Product List | Glossary On
Versions: 1 2 3 4 5 6 7 8 9 10 11 12 13 14 15 16 17 18 19 20 21 22 23 24 25 26 27 28 29 30 31 32 33 34 35 36 37 38 39 40 41 42 43 44 45 46 47 48 49 50
000
ASUS45 KBOI 220910
RWRID

IDAHO REGIONAL WEATHER ROUNDUP
NATIONAL WEATHER SERVICE BOISE ID
300 AM MDT FRI MAY 22 2015

NOTE: "FAIR" INDICATES FEW OR NO CLOUDS BELOW 12000 FEET
WITH NO SIGNIFICANT WEATHER AND/OR OBSTRUCTIONS TO VISIBILITY

IDZ012-014-221000-
SOUTHWEST IDAHO


CITY           SKY/WX    TMP DP  RH WIND       PRES   REMARKS
BOISE          PTCLDY    54  47  77 SE5       29.85F
CALDWELL       CLOUDY    55  43  62 SW3       29.86S
MOUNTAIN HOME  MOCLDY    48  41  76 E2        29.86S
$$

IDZ016-017-221000-
SOUTHCENTRAL IDAHO


CITY           SKY/WX    TMP DP  RH WIND       PRES   REMARKS
BURLEY         CLOUDY    52  46  80 CALM      29.88F
JEROME         PTCLDY    50  45  83 E5        29.89F
TWIN FALLS     MOCLDY    52  44  74 S9        29.87S
$$

IDZ019>023-221000-
SOUTHEAST IDAHO


CITY           SKY/WX    TMP DP  RH WIND       PRES   REMARKS
IDAHO FALLS    CLOUDY    47  45  93 N3        29.96R
POCATELLO      CLEAR     49  46  90 E8        29.93S
REXBURG        MOCLDY    49  45  86 NE3       29.95S
$$

IDZ006-010-011-018-031-032-221000-
CENTRAL IDAHO MOUNTAINS


CITY           SKY/WX    TMP DP  RH WIND       PRES   REMARKS
MCCALL         CLEAR     41  39  93 CALM      29.92S
HAILEY         MOCLDY    45  43  93 NW6       29.97S
STANLEY          N/A     41  38  89 CALM      30.00S
SALMON         CLOUDY    48  45  87 CALM      29.93S
CHALLIS        PTCLDY    47  42  83 SW3       29.95F
$$

IDZ002-004-006-007-026-221000-
NORTHERN IDAHO


CITY           SKY/WX    TMP DP  RH WIND       PRES   REMARKS
LEWISTON       MOCLDY    63  53  70 SE6       29.83R
LOWELL           N/A     53  50  89 CALM      29.90R
COEUR D`ALENE  PTCLDY    61  46  59 CALM      29.84S
MULLAN PASS    CLEAR     50  37  61 S6        29.98F
$$


USA.gov is the U.S. government's official web portal to all federal, state and local government web resources and services.